Hourly Data Report for June 24, 2012

All times are specified in Local Standard Time (LST). Add 1 hour to adjust for Daylight Saving Time where and when it is observed.

SAINT JOHN A
NEW BRUNSWICK

45°18'58.000" N
65°53'24.000" W
108.80 m
8104901
71609
YSJ

Download Data

Hourly Data (June 2012)
Hourly Data Report for June 24, 2012
Temp Definition
°C
Dew Point Temp Definition
°C
Rel Hum Definition
%
Wind Dir Definition
10's deg

Wind Spd Definition
km/h
Visibility Definition
km
Stn Press Definition
kPa
Hmdx Definition


Wind Chill Definition


Weather Definition


TIME
00:00 Legend Double Dagger 13.0 12.9 99 7 8 4.8 99.75     Fog
01:00 Legend Double Dagger 12.9 12.8 99   0 4.8 99.71     Rain,Fog
02:00 Legend Double Dagger 13.0 13.0 100 2 4 3.2 99.67     Rain,Fog
03:00 Legend Double Dagger 13.1 13.0 99 5 7 4.8 99.62     Fog
04:00 Legend Double Dagger 13.1 13.0 99 13 5 10.0 99.61     LegendNANA
05:00 Legend Double Dagger 13.1 13.0 99 14 7 10.0 99.60     Cloudy
06:00 Legend Double Dagger 13.2 12.9 98   0 10.0 99.59     LegendNANA
07:00 Legend Double Dagger 13.5 13.2 98 22 7 10.0 99.61     LegendNANA
08:00 Legend Double Dagger 14.5 13.6 94 28 4 9.7 99.58     Fog
09:00 Legend Double Dagger 14.2 13.9 98 27 6 2.4 99.59     Drizzle,Fog
10:00 Legend Double Dagger 14.9 14.3 96 33 8 6.4 99.56     Drizzle,Fog
11:00 Legend Double Dagger 16.2 14.9 92 33 10 9.7 99.55     Fog
12:00 Legend Double Dagger 16.5 14.9 90 1 15 10.0 99.55     LegendNANA
13:00 Legend Double Dagger 16.4 15.3 93 4 6 10.0 99.54     Drizzle
14:00 Legend Double Dagger 16.9 15.1 89 31 11 10.0 99.55     Cloudy
15:00 Legend Double Dagger 15.7 14.9 95 33 15 9.7 99.55     Rain Showers,Fog
16:00 Legend Double Dagger 16.0 15.5 97 31 12 9.7 99.57     Rain Showers,Fog
17:00 Legend Double Dagger 17.3 15.7 90 32 17 10.0 99.58     Mostly Cloudy
18:00 Legend Double Dagger 15.6 15.1 97 32 17 3.2 99.63     Rain Showers,Fog
19:00 Legend Double Dagger 15.7 15.2 97 30 12 10.0 99.66     LegendNANA
20:00 Legend Double Dagger 15.3 15.0 98 28 14 10.0 99.71     Mostly Cloudy
21:00 Legend Double Dagger 15.2 14.9 98 30 10 10.0 99.75     LegendNANA
22:00 Legend Double Dagger 15.0 14.7 98 27 6 10.0 99.80     LegendNANA
23:00 Legend Double Dagger 13.5 13.2 98   0 10.0 99.80     Mostly Cloudy

Notes on Data Quality.

Legend

  • E = Estimated
  • M = Missing
  • NA = Not Available
  • ‡ = Partner data that is not subject to review by the National Climate Archives
Date modified: